Year,Month,Day,Hour,Minute,Value (Times are PST for temperature in C)
2013,03,24,00,00,1.10
2013,03,24,00,01,1.10
2013,03,24,00,02,1.10
2013,03,24,00,03,1.10
2013,03,24,00,04,1.10
2013,03,24,00,05,1.10
2013,03,24,00,06,1.00
2013,03,24,00,07,1.00
2013,03,24,00,08,1.00
2013,03,24,00,09,0.90
2013,03,24,00,10,0.90
2013,03,24,00,11,0.90
2013,03,24,00,12,0.90
2013,03,24,00,13,0.90
2013,03,24,00,14,0.90
2013,03,24,00,15,0.80
2013,03,24,00,16,0.80
2013,03,24,00,17,0.80
2013,03,24,00,18,0.80
2013,03,24,00,19,0.80
2013,03,24,00,20,0.80
2013,03,24,00,21,0.70
2013,03,24,00,22,0.70
2013,03,24,00,23,0.70
2013,03,24,00,24,0.70
2013,03,24,00,25,0.70
2013,03,24,00,26,0.70
2013,03,24,00,27,0.60
2013,03,24,00,28,0.60
2013,03,24,00,29,0.60
2013,03,24,00,30,0.60
2013,03,24,00,31,0.60
2013,03,24,00,32,0.60
2013,03,24,00,33,0.60
2013,03,24,00,34,0.60
2013,03,24,00,35,0.50
2013,03,24,00,36,0.50
2013,03,24,00,37,0.50
2013,03,24,00,38,0.50
2013,03,24,00,39,0.50
2013,03,24,00,40,0.50
2013,03,24,00,41,0.40
2013,03,24,00,42,0.40
2013,03,24,00,43,0.40
2013,03,24,00,44,0.40
2013,03,24,00,45,0.40
2013,03,24,00,46,0.40
2013,03,24,00,47,0.30
2013,03,24,00,48,0.30
2013,03,24,00,49,0.30
2013,03,24,00,50,0.30
2013,03,24,00,51,0.30
2013,03,24,00,52,0.30
2013,03,24,00,53,0.30
2013,03,24,00,54,0.30
2013,03,24,00,55,0.30
2013,03,24,00,56,0.30
2013,03,24,00,57,0.20
2013,03,24,00,58,0.20
2013,03,24,00,59,0.20
2013,03,24,01,00,0.20
2013,03,24,01,01,0.20
2013,03,24,01,02,0.20
2013,03,24,01,03,0.20
2013,03,24,01,04,0.20
2013,03,24,01,05,0.20
2013,03,24,01,06,0.20
2013,03,24,01,07,0.20
2013,03,24,01,08,0.20
2013,03,24,01,09,0.20
2013,03,24,01,10,0.20
2013,03,24,01,11,0.20
2013,03,24,01,12,0.20
2013,03,24,01,13,0.20
2013,03,24,01,14,0.20
2013,03,24,01,15,0.20
2013,03,24,01,16,0.10
2013,03,24,01,17,0.10
2013,03,24,01,18,0.10
2013,03,24,01,19,0.10
2013,03,24,01,20,0.10
2013,03,24,01,21,0.10
2013,03,24,01,22,0.10
2013,03,24,01,23,0.10
2013,03,24,01,24,0.20
2013,03,24,01,25,0.20
2013,03,24,01,26,0.20
2013,03,24,01,27,0.10
2013,03,24,01,28,0.10
2013,03,24,01,29,0.10
2013,03,24,01,30,0.10
2013,03,24,01,31,0.10
2013,03,24,01,32,0.10
2013,03,24,01,33,0.10
2013,03,24,01,34,0.10
2013,03,24,01,35,0.10
2013,03,24,01,36,0.10
2013,03,24,01,37,0.10
2013,03,24,01,38,0.10
2013,03,24,01,39,0.10
2013,03,24,01,40,0.10
2013,03,24,01,41,0.10
2013,03,24,01,42,0.10
2013,03,24,01,43,0.10
2013,03,24,01,44,0.10
2013,03,24,01,45,0.10
2013,03,24,01,46,0.10
2013,03,24,01,47,0.10
2013,03,24,01,48,0.10
2013,03,24,01,49,0.10
2013,03,24,01,50,0.10
2013,03,24,01,51,0.10
2013,03,24,01,52,0.10
2013,03,24,01,53,0.10
2013,03,24,01,54,0.10
2013,03,24,01,55,0.10
2013,03,24,01,56,0.10
2013,03,24,01,57,0.10
2013,03,24,01,58,0.10
2013,03,24,01,59,0.10
2013,03,24,02,00,0.10
2013,03,24,02,01,0.10
2013,03,24,02,02,0.20
2013,03,24,02,03,0.20
2013,03,24,02,04,0.20
2013,03,24,02,05,0.20
2013,03,24,02,06,0.20
2013,03,24,02,07,0.20
2013,03,24,02,08,0.20
2013,03,24,02,09,0.20
2013,03,24,02,10,0.20
2013,03,24,02,11,0.20
2013,03,24,02,12,0.20
2013,03,24,02,13,0.20
2013,03,24,02,14,0.20
2013,03,24,02,15,0.20
2013,03,24,02,16,0.20
2013,03,24,02,17,0.20
2013,03,24,02,18,0.20
2013,03,24,02,19,0.30
2013,03,24,02,20,0.30
2013,03,24,02,21,0.30
2013,03,24,02,22,0.30
2013,03,24,02,23,0.30
2013,03,24,02,24,0.30
2013,03,24,02,25,0.30
2013,03,24,02,26,0.30
2013,03,24,02,27,0.30
2013,03,24,02,28,0.40
2013,03,24,02,29,0.40
2013,03,24,02,30,0.40
2013,03,24,02,31,0.40
2013,03,24,02,32,0.40
2013,03,24,02,33,0.40
2013,03,24,02,34,0.40
2013,03,24,02,35,0.40
2013,03,24,02,36,0.50
2013,03,24,02,37,0.50
2013,03,24,02,38,0.50
2013,03,24,02,39,0.50
2013,03,24,02,40,0.50
2013,03,24,02,41,0.60
2013,03,24,02,42,0.60
2013,03,24,02,43,0.60
2013,03,24,02,44,0.60
2013,03,24,02,45,0.60
2013,03,24,02,46,0.60
2013,03,24,02,47,0.60
2013,03,24,02,48,0.60
2013,03,24,02,49,0.60
2013,03,24,02,50,0.60
2013,03,24,02,51,0.60
2013,03,24,02,52,0.70
2013,03,24,02,53,0.70
2013,03,24,02,54,0.70
2013,03,24,02,55,0.70
2013,03,24,02,56,0.70
2013,03,24,02,57,0.70
2013,03,24,02,58,0.70
2013,03,24,02,59,0.70
2013,03,24,03,00,0.70
2013,03,24,03,01,0.70
2013,03,24,03,02,0.70
2013,03,24,03,03,0.70
2013,03,24,03,04,0.70
2013,03,24,03,05,0.70
2013,03,24,03,06,0.70
2013,03,24,03,07,0.70
2013,03,24,03,08,0.70
2013,03,24,03,09,0.70
2013,03,24,03,10,0.70
2013,03,24,03,11,0.80
2013,03,24,03,12,0.80
2013,03,24,03,13,0.80
2013,03,24,03,14,0.80
2013,03,24,03,15,0.80
2013,03,24,03,16,0.80
2013,03,24,03,17,0.80
2013,03,24,03,18,0.80
2013,03,24,03,19,0.80
2013,03,24,03,20,0.80
2013,03,24,03,21,0.70
2013,03,24,03,22,0.70
2013,03,24,03,23,0.80
2013,03,24,03,24,0.80
2013,03,24,03,25,0.80
2013,03,24,03,26,0.80
2013,03,24,03,27,0.80
2013,03,24,03,28,0.80
2013,03,24,03,29,0.80
2013,03,24,03,30,0.80
2013,03,24,03,31,0.80
2013,03,24,03,32,0.80
2013,03,24,03,33,0.80
2013,03,24,03,34,0.80
2013,03,24,03,35,0.80
2013,03,24,03,36,0.80
2013,03,24,03,37,0.80
2013,03,24,03,38,0.80
2013,03,24,03,39,0.80
2013,03,24,03,40,0.80
2013,03,24,03,41,0.80
2013,03,24,03,42,0.80
2013,03,24,03,43,0.80
2013,03,24,03,44,0.80
2013,03,24,03,45,0.80
2013,03,24,03,46,0.80
2013,03,24,03,47,0.80
2013,03,24,03,48,0.90
2013,03,24,03,49,0.90
2013,03,24,03,50,0.90
2013,03,24,03,51,1.00
2013,03,24,03,52,1.00
2013,03,24,03,53,1.10
2013,03,24,03,54,1.10
2013,03,24,03,55,1.10
2013,03,24,03,56,1.10
2013,03,24,03,57,1.10
2013,03,24,03,58,1.10
2013,03,24,03,59,1.10
2013,03,24,04,00,1.10
2013,03,24,04,01,1.10
2013,03,24,04,02,1.10
2013,03,24,04,03,1.10
2013,03,24,04,04,1.10
2013,03,24,04,05,1.10
2013,03,24,04,06,1.10
2013,03,24,04,07,1.10
2013,03,24,04,08,1.10
2013,03,24,04,09,1.10
2013,03,24,04,10,1.10
2013,03,24,04,11,1.10
2013,03,24,04,12,1.10
2013,03,24,04,13,1.10
2013,03,24,04,14,1.10
2013,03,24,04,15,1.00
2013,03,24,04,16,1.00
2013,03,24,04,17,1.00
2013,03,24,04,18,1.00
2013,03,24,04,19,1.00
2013,03,24,04,20,1.00
2013,03,24,04,21,0.90
2013,03,24,04,22,0.90
2013,03,24,04,23,0.90
2013,03,24,04,24,0.90
2013,03,24,04,25,0.90
2013,03,24,04,26,0.90
2013,03,24,04,27,0.90
2013,03,24,04,28,0.90
2013,03,24,04,29,0.90
2013,03,24,04,30,0.90
2013,03,24,04,31,0.90
2013,03,24,04,32,0.90
2013,03,24,04,33,0.90
2013,03,24,04,34,0.90
2013,03,24,04,35,0.90
2013,03,24,04,36,0.90
2013,03,24,04,37,0.90
2013,03,24,04,38,0.90
2013,03,24,04,39,0.90
2013,03,24,04,40,0.90
2013,03,24,04,41,0.90
2013,03,24,04,42,0.90
2013,03,24,04,43,0.90
2013,03,24,04,44,1.00
2013,03,24,04,45,1.00
2013,03,24,04,46,1.00
2013,03,24,04,47,1.10
2013,03,24,04,48,1.10
2013,03,24,04,49,1.10
2013,03,24,04,50,1.10
2013,03,24,04,51,1.10
2013,03,24,04,52,1.10
2013,03,24,04,53,1.00
2013,03,24,04,54,1.00
2013,03,24,04,55,1.00
2013,03,24,04,56,1.00
2013,03,24,04,57,0.90
2013,03,24,04,58,0.90
2013,03,24,04,59,0.90
2013,03,24,05,00,0.90
2013,03,24,05,01,0.90
2013,03,24,05,02,0.90
2013,03,24,05,03,0.90
2013,03,24,05,04,0.90
2013,03,24,05,05,1.00
2013,03,24,05,06,1.00
2013,03,24,05,07,1.00
2013,03,24,05,08,1.00
2013,03,24,05,09,1.00
2013,03,24,05,10,1.00
2013,03,24,05,11,1.00
2013,03,24,05,12,1.00
2013,03,24,05,13,1.00
2013,03,24,05,14,1.00
2013,03,24,05,15,1.00
2013,03,24,05,16,1.00
2013,03,24,05,17,1.00
2013,03,24,05,18,1.00
2013,03,24,05,19,1.00
2013,03,24,05,20,1.00
2013,03,24,05,21,1.00
2013,03,24,05,22,1.10
2013,03,24,05,23,1.10
2013,03,24,05,24,1.10
2013,03,24,05,25,1.20
2013,03,24,05,26,1.20
2013,03,24,05,27,1.20
2013,03,24,05,28,1.20
2013,03,24,05,29,1.20
2013,03,24,05,30,1.20
2013,03,24,05,31,1.20
2013,03,24,05,32,1.20
2013,03,24,05,33,1.20
2013,03,24,05,34,1.30
2013,03,24,05,35,1.30
2013,03,24,05,36,1.30
2013,03,24,05,37,1.30
2013,03,24,05,38,1.30
2013,03,24,05,39,1.30
2013,03,24,05,40,1.30
2013,03,24,05,41,1.30
2013,03,24,05,42,1.30
2013,03,24,05,43,1.30
2013,03,24,05,44,1.30
2013,03,24,05,45,1.30
2013,03,24,05,46,1.30
2013,03,24,05,47,1.30
2013,03,24,05,48,1.30
2013,03,24,05,49,1.30
2013,03,24,05,50,1.30
2013,03,24,05,51,1.30
2013,03,24,05,52,1.30
2013,03,24,05,53,1.30
2013,03,24,05,54,1.30
2013,03,24,05,55,1.30
2013,03,24,05,56,1.30
2013,03,24,05,57,1.30
2013,03,24,05,58,1.30
2013,03,24,05,59,1.30
2013,03,24,06,00,1.30
2013,03,24,06,01,1.30
2013,03,24,06,02,1.30
2013,03,24,06,03,1.30
2013,03,24,06,04,1.30
2013,03,24,06,05,1.30
2013,03,24,06,06,1.30
2013,03,24,06,07,1.30
2013,03,24,06,08,1.30
2013,03,24,06,09,1.30
2013,03,24,06,10,1.30
2013,03,24,06,11,1.30
2013,03,24,06,12,1.30
2013,03,24,06,13,1.30
2013,03,24,06,14,1.30
2013,03,24,06,15,1.30
2013,03,24,06,16,1.30
2013,03,24,06,17,1.30
2013,03,24,06,18,1.30
2013,03,24,06,19,1.30
2013,03,24,06,20,1.30
2013,03,24,06,21,1.30
2013,03,24,06,22,1.30
2013,03,24,06,23,1.30
2013,03,24,06,24,1.40
2013,03,24,06,25,1.40
2013,03,24,06,26,1.40
2013,03,24,06,27,1.40
2013,03,24,06,28,1.40
2013,03,24,06,29,1.40
2013,03,24,06,30,1.40
2013,03,24,06,31,1.40
